Location: Bon Acre
(42.6442°N, 73.5758°W)
Time: 16:00:09
(UTC+00:00)

Meteor 2-2 Rocket - Pass Details

Date: 14 December 2025
Orbit: 852 x 927 km, 81.3° (Epoch: 19 January)

Event Time Altitude Azimuth Distance (km) Brightness Sun altitude
Rises 22:36:26 0° 177° (S) 3,422 7.6 -13.3°
Reaches altitude 10° 22:38:53 10° 173° (S) 2,483 6.8 -13.7°
Maximum altitude 22:44:24 59° 95° (E) 981 4.2 -14.7°
Drops below altitude 10° 22:49:55 10° 17° (NNE) 2,490 6.3 -15.6°
Enters shadow 22:51:40 - 15° (NNE) 3,161 6.9 -15.9°
